Regional Weather Roundup
Issued by NWS

Home | Current Version | Previous Version | Text Only | Print | Product List | Glossary Off
Versions: 1 2 3 4 5 6 7 8 9 10 11 12 13 14 15 16 17 18 19 20 21 22 23 24 25 26 27 28 29 30 31 32 33 34 35 36 37 38 39 40 41 42 43 44 45 46 47 48 49 50

000
ASUS43 KLOT 200203
RWRIL

ILLINOIS REGIONAL WEATHER ROUNDUP
NATIONAL WEATHER SERVICE CHICAGO/ROMEOVILLE IL
800 PM CST SUN NOV 19 2017

NOTE: "FAIR" INDICATES FEW OR NO CLOUDS BELOW 12,000 FEET WITH NO
SIGNIFICANT WEATHER AND/OR OBSTRUCTIONS TO VISIBILITY.

* THESE STATIONS ARE NOT UNDER NWS QUALITY CONTROL. THEY ALSO MAY NOT
  REPORT WEATHER SUCH AS PRECIPITATION OR FOG.

ILZ001-002-007-009-015-016-024-200300-
NORTHWEST ILLINOIS

CITY           SKY/WX    TMP DP  RH WIND       PRES   REMARKS
MOLINE         CLEAR     34  21  59 SW9       30.06F WCI  27
STERLING*        N/A     29  23  78 MISG        N/A
SAVANNA*       CLEAR     28  22  78 S7        30.06S WCI  21
$$

ILZ003-004-008-010-011-017-018-200300-
NORTH CENTRAL ILLINOIS

CITY           SKY/WX    TMP DP  RH WIND       PRES   REMARKS
ROCKFORD       CLEAR     25  19  78 S6        30.06F WCI  18
FREEPORT*      CLEAR     28  20  72 SW14      30.05F WCI  17
ROCHELLE*      CLEAR     25  21  85 SW5       30.07F WCI  19
DE KALB*       CLEAR     24  20  85 S7        30.06S WCI  16
$$

ILZ005-006-012>014-019>023-200300-
NORTHEAST ILLINOIS

CITY           SKY/WX    TMP DP  RH WIND       PRES   REMARKS
CHICAGO-OHARE  CLEAR     31  21  66 W10       30.06S WCI  22
CHICAGO-MIDWAY CLEAR     31  21  66 W9        30.08S WCI  23
AURORA         CLEAR     27  21  78 SW6       30.09R WCI  20
LANSING*       CLEAR     29  23  78 W7        30.10R WCI  22
JOLIET*        CLEAR     30  23  75 CALM      30.11R
WAUKEGAN       CLEAR     30  20  66 W7        30.03R WCI  23
DUPAGE AIRPORT CLEAR     28  21  75 SW8       30.07R WCI  20
KANKAKEE*      CLEAR     29  22  75 SW6       30.12S WCI  22
WHEELING       CLEAR     31  21  66 W7        30.08R WCI  24
MORRIS*        CLEAR     28  21  76 SW6       30.10R WCI  21
ROMEOVILLE*    CLEAR     28  22  78 SW6       30.10R WCI  22
NORTHERLY ISL    N/A     32  20  61 W10         N/A  WCI  24
$$

LMZ740>746-200300-
SOUTHERN LAKE MICHIGAN

STATION/POSITION SKY/WX   TEMP    WIND        PRES    VSBY  WAVE
                          AIR SEA DIR/SP/G                  HT/PER
                          (F)     (DEG/KT/KT) (MB)    (MI)  (FT/S)
SOUTHERN BUOY              36 49  300/ 21/ 25 1017.0          5/ 5
HARRISON CRIB              33     250/ 18/ 20   N/A
BURNHAM HARBOR             32     250/  7/ 12   N/A
CALUMET HARBOR             31     230/  6/ 11 1018.0S
BURNS HARBOR               33     240/ 13/ 17 1019.0R
MICHIGAN CITY              35     240/ 21/ 22   N/A
$$

ILZ025>027-034>036-040-047-049-050-058-095>099-200300-
WEST-CENTRAL ILLINOIS

CITY           SKY/WX    TMP DP  RH WIND       PRES   REMARKS
QUINCY         CLEAR     34  23  64 S8        30.12F WCI  27
GALESBURG*     CLOUDY    32  24  74 S9        30.10F WCI  24
MACOMB*        CLOUDY    32  25  75 S8        30.14S WCI  25
JACKSONVILLE*  CLOUDY    32  21  64 S6        30.15F WCI  26
PITTSFIELD*    CLOUDY    34  23  65 S6        30.15F WCI  29
$$

ILZ028>032-037-038-041>044-048-051>054-059>061-200300-
CENTRAL ILLINOIS

CITY           SKY/WX    TMP DP  RH WIND       PRES   REMARKS
PONTIAC        CLEAR     30  25  81 SW6       30.13S WCI  24
BLOOMINGTON    CLEAR     28  22  78 SW8       30.14S WCI  20
DECATUR        CLEAR     29  22  75 SW3       30.17S
PEORIA         CLEAR     29  20  69 SW6       30.13F WCI  23
LACON*         CLEAR     29  21  69 SW3       30.11S
LINCOLN*       CLEAR     30  24  77 CALM      30.15F
SPRINGFIELD    CLOUDY    30  24  78 SW5       30.17S WCI  25
TAYLORVILLE    CLEAR     29  22  74 S5        30.18S WCI  24
$$

ILZ033-039-045-046-055>057-062-063-200300-
EAST-CENTRAL ILLINOIS

CITY           SKY/WX    TMP DP  RH WIND       PRES   REMARKS
CHAMPAIGN      CLEAR     29  24  82 W7        30.15S WCI  22
DANVILLE*      CLEAR     29  22  78 W7        30.11S WCI  21
RANTOUL*       CLEAR     32  26  78 W8        30.14F WCI  25
MATTOON        CLEAR     30  24  78 SW6       30.16S WCI  24
PARIS*         CLEAR     29  26  86 W6        30.17S WCI  23
$$

ILZ079-100>102-200300-
SOUTHWEST ILLINOIS

CITY           SKY/WX    TMP DP  RH WIND       PRES   REMARKS
ALTON          CLEAR     30  23  74 SW5       30.19F WCI  25
BELLEVILLE     CLEAR     30  22  71 CALM      30.19F
CAHOKIA*       CLEAR     29  21  72 S3        30.20F
SPARTA*        CLEAR     31  23  72 CALM      30.22F
$$

ILZ064>066-069>071-074>076-080>082-084>086-088>090-092>094-200300-
SOUTH-CENTRAL ILLINOIS

CITY           SKY/WX    TMP DP  RH WIND       PRES   REMARKS
CARBONDALE     CLEAR     28  24  85 CALM      30.22S
CAIRO*         CLEAR     29  27  90 CALM      30.24R
EFFINGHAM*     CLEAR     29  25  86 CALM      30.21S
MARION         CLEAR     30  24  79 CALM      30.23S
MT. VERNON     CLEAR     25  23  92 CALM      30.21S
CENTRALIA*     CLEAR     31  23  72 CALM      30.20S
SALEM*         CLEAR     32  22  68 CALM      30.20S
METROPOLIS*    CLEAR     30  25  81 CALM      30.24R
$$

ILZ067-068-072-073-078-083-087-091-200300-
SOUTHEAST ILLINOIS

CITY           SKY/WX    TMP DP  RH WIND       PRES   REMARKS
LAWRENCEVILLE  CLEAR     32  21  64 W3        30.21R
FLORA*         CLEAR     31  26  78 SW5       30.17S WCI  27
FAIRFIELD*     CLEAR     29  22  76 CALM      30.21R
HARRISBURG*    CLEAR     29  24  82 CALM      30.23S
ROBINSON*      CLEAR     29  22  76 SW5       30.20S WCI  23
CARMI*         CLEAR     27  23  87 S3        30.22R
$$

ABBREVIATIONS USED IN REMARKS
   TC - TEMPERATURE IN CELSIUS
  WCI - WIND CHILL INDEX
   HX - HEAT INDEX
  VSB - VISIBILITY
$$





USA.gov is the U.S. government's official web portal to all federal, state and local government web resources and services.